Location: Newark
(45.4422°N, 16.2769°E)
Time: 21:14:41
(UTC+00:00)

Tiros 1 despin weight - Pass Details

Date: 22 December 2019
Orbit: 593 x 643 km, 48.2° (Epoch: 19 January)

Event Time Altitude Azimuth Distance (km) Brightness Sun altitude
Rises 06:28:13 0° 281° (W) 2,871 ? -1.4°
Reaches altitude 10° 06:31:42 10° 253° (WSW) 1,950 ? -0.9°
Maximum altitude 06:33:42 13° 226° (SW) 1,760 ? -0.6°
Drops below altitude 10° 06:35:41 10° 200° (SSW) 1,933 ? -0.3°
Sets 06:39:07 0° 172° (S) 2,821 ? 0.2°
